NI4CE-10 Weather Reports


time (UTC)temp
F
wind
direction
speed
knots
gust
knots
rain 1hr
in
rain 24hr
in
rain mn
in
humidity
%
barometer
mb
20260902192755 88 358 6.1 8.7 0.00 0.12 0.11 100 1015.6
20260902192255 89 1 5.2 12.2 0.00 0.12 0.11 100 1015.6
20260902192012 90 5 10.4 10.4 0.00 0.12 0.11 100 1015.6
20260902191755 90 5 10.4 10.4 0.00 0.12 0.11 100 1015.6
20260902191255 91 37 7.0 9.6 0.00 0.12 0.11 100 1015.6
20260902191008 90 39 2.6 6.1 0.00 0.12 0.11 100 1015.6
20260902190755 90 39 2.6 6.1 0.00 0.12 0.11 100 1015.6
20260902190255 89 15 3.5 6.1 0.00 0.26 0.11 100 1015.6
20260902190007 89 68 2.6 5.2 0.00 0.26 0.11 100 1015.8
20260902185755 89 68 2.6 5.2 0.00 0.26 0.11 100 1015.8
20260902185255 89 54 3.5 4.3 0.00 0.26 0.11 100 1015.8
20260902185113 89 61 2.6 6.1 0.00 0.26 0.11 100 1015.9
20260902184755 89 61 2.6 6.1 0.00 0.26 0.11 100 1015.9
20260902184255 91 98 5.2 5.2 0.00 0.26 0.11 100 1016.0
20260902183950 92 334 3.5 7.0 0.00 0.26 0.11 100 1016.1
20260902183755 92 334 3.5 7.0 0.00 0.26 0.11 100 1016.1
20260902183255 91 358 3.5 7.0 0.00 0.26 0.11 100 1016.1
20260902182755 91 2 1.7 8.7 0.00 0.26 0.11 100 1016.2
20260902182255 92 355 6.1 6.1 0.00 0.26 0.11 100 1016.3
20260902182022 93 4 1.7 4.3 0.00 0.26 0.11 100 1016.3
20260902181755 93 4 1.7 4.3 0.00 0.26 0.11 100 1016.3
20260902181255 92 30 0.9 7.0 0.00 0.26 0.11 100 1016.3
20260902181133 96 357 6.1 7.0 0.00 0.26 0.11 100 1016.4
20260902180755 96 357 6.1 7.0 0.00 0.26 0.11 100 1016.4
20260902180255 97 99 0.9 7.0 0.00 0.26 0.11 100 1016.5
20260902175755 96 330 4.3 5.2 0.00 0.26 0.11 100 1016.6
20260902175255 94 47 0.9 5.2 0.00 0.26 0.11 100 1016.6
20260902174755 93 70 0.9 7.0 0.00 0.26 0.11 100 1016.7
20260902174255 96 340 6.1 6.1 0.00 0.26 0.11 100 1016.7
20260902174157 96 36 3.5 5.2 0.00 0.26 0.11 100 1016.7
20260902173755 96 36 3.5 5.2 0.00 0.26 0.11 100 1016.7
20260902173321 96 327 5.2 7.0 0.00 0.26 0.11 100 1016.8
20260902173255 96 351 3.5 7.0 0.00 0.26 0.11 100 1016.7
20260902172755 96 327 5.2 7.0 0.00 0.26 0.11 100 1016.8
20260902172255 96 101 2.6 5.2 0.00 0.26 0.11 100 1016.9
20260902172159 96 21 2.6 4.3 0.00 0.26 0.11 100 1017.0
20260902171755 96 21 2.6 4.3 0.00 0.26 0.11 100 1017.0
20260902171255 96 37 0.9 6.1 0.00 0.26 0.11 100 1017.1
20260902171124 94 9 1.7 6.1 0.00 0.26 0.11 100 1017.2
20260902170755 94 9 1.7 6.1 0.00 0.26 0.11 100 1017.2
20260902170255 90 26 5.2 7.0 0.00 0.26 0.11 100 1017.4
20260902170037 91 59 2.6 6.1 0.00 0.26 0.11 100 1017.5
20260902165755 91 59 2.6 6.1 0.00 0.26 0.11 100 1017.5
20260902165255 91 22 5.2 6.1 0.00 0.26 0.11 100 1017.5
20260902164755 95 50 3.5 7.8 0.00 0.26 0.11 100 1017.6
20260902164255 95 336 1.7 7.8 0.00 0.26 0.11 100 1017.7
20260902164012 90 2 5.2 7.8 0.01 0.26 0.11 100 1017.8
20260902163755 90 2 5.2 7.8 0.01 0.26 0.11 100 1017.8
20260902163255 87 2 2.6 7.0 0.02 0.26 0.11 100 1017.7
20260902163134 88 11 6.1 10.4 0.05 0.26 0.11 100 1017.7
20260902162755 88 11 6.1 10.4 0.05 0.26 0.11 100 1017.7
20260902162255 91 14 5.2 10.4 0.09 0.26 0.11 100 1017.7
20260902162126 93 355 7.0 11.3 0.10 0.26 0.11 100 1017.7
20260902161755 93 355 7.0 11.3 0.10 0.26 0.11 100 1017.7
20260902161255 92 7 6.1 8.7 0.10 0.26 0.11 100 1017.8
20260902161113 90 299 0.9 10.4 0.10 0.26 0.11 100 1017.9
20260902160755 90 299 0.9 10.4 0.10 0.26 0.11 100 1017.9
20260902160255 92 347 7.8 9.6 0.10 0.26 0.11 100 1018.0
20260902160111 88 358 4.3 7.8 0.10 0.26 0.11 100 1018.0
20260902155755 88 358 4.3 7.8 0.10 0.26 0.11 100 1018.0
20260902155255 87 1 2.6 7.8 0.10 0.26 0.11 100 1017.9
20260902154755 88 340 1.7 6.1 0.10 0.26 0.11 100 1018.0
20260902154256 91 15 4.3 5.2 0.10 0.26 0.11 100 1017.9
20260902154036 89 4 0.0 0.0 0.09 0.25 0.10 100 1018.0
20260902153756 89 4 0.0 0.0 0.09 0.25 0.10 100 1018.0
20260902153256 84 4 0.0 3.5 0.08 0.24 0.09 100 1018.1
20260902153126 84 70 1.7 7.8 0.05 0.21 0.06 100 1018.1
20260902152756 84 70 1.7 7.8 0.05 0.21 0.06 100 1018.1
20260902152256 87 0 3.5 7.8 0.00 0.16 0.01 100 1018.1
20260902151756 92 358 1.7 5.2 0.00 0.16 0.01 100 1018.2
20260902151256 91 19 2.6 2.6 0.00 0.16 0.01 100 1018.1
20260902150948 91 29 1.7 6.1 0.00 0.16 0.01 100 1018.1
20260902150756 91 29 1.7 6.1 0.00 0.16 0.01 100 1018.1
20260902150256 92 49 2.6 4.3 0.00 0.16 0.01 100 1018.0
20260902145756 91 85 2.6 4.3 0.00 0.16 0.01 100 1018.0
20260902145256 93 113 2.6 3.5 0.00 0.16 0.01 100 1018.0
20260902144756 93 12 0.0 2.6 0.00 0.16 0.01 100 1018.0
20260902144256 89 14 1.7 4.3 0.00 0.16 0.01 100 1018.0
20260902144007 91 54 4.3 6.1 0.00 0.16 0.01 100 1017.9
20260902143756 91 54 4.3 6.1 0.00 0.16 0.01 100 1017.9
20260902143256 95 4 0.0 3.5 0.00 0.16 0.01 100 1017.8
20260902142756 94 60 0.0 4.3 0.00 0.16 0.01 100 1017.8
20260902142623 89 78 1.7 5.2 0.00 0.16 0.01 100 1017.8
20260902142256 89 78 1.7 5.2 0.00 0.16 0.01 100 1017.8
20260902142011 95 106 3.5 5.2 0.00 0.16 0.01 100 1017.8
20260902141756 95 106 3.5 5.2 0.00 0.16 0.01 100 1017.8
20260902141256 95 25 0.9 5.2 0.00 0.16 0.01 100 1017.8
20260902141028 96 54 0.0 3.5 0.00 0.16 0.01 100 1017.8
20260902140758 96 54 0.0 3.5 0.00 0.16 0.01 100 1017.8
20260902140540 90 8 0.9 6.1 0.00 0.16 0.01 100 1017.9
20260902140256 90 8 0.9 6.1 0.00 0.16 0.01 100 1017.9
20260902135756 94 18 2.6 7.8 0.00 0.16 0.01 100 1017.9
20260902135536 101 73 0.0 5.2 0.00 0.16 0.01 100 1017.9
20260902135256 101 73 0.0 5.2 0.00 0.16 0.01 100 1017.9
20260902135141 101 358 3.5 6.1 0.00 0.16 0.01 100 1017.8
20260902134756 101 358 3.5 6.1 0.00 0.16 0.01 100 1017.8
20260902134256 99 23 0.0 2.6 0.00 0.16 0.01 100 1017.8
20260902134124 99 53 1.7 7.0 0.00 0.16 0.01 100 1017.9
20260902133756 99 53 1.7 7.0 0.00 0.16 0.01 100 1017.9
20260902133654 98 12 6.1 6.1 0.00 0.16 0.01 100 1017.9
20260902133256 98 12 6.1 6.1 0.00 0.16 0.01 100 1017.9
20260902133013 96 36 2.6 6.1 0.00 0.16 0.01 100 1017.9
20260902132756 96 36 2.6 6.1 0.00 0.16 0.01 100 1017.9
20260902132256 95 49 3.5 6.1 0.00 0.16 0.01 100 1017.8
20260902132002 93 63 0.0 6.1 0.00 0.16 0.01 100 1017.8
20260902131756 93 63 0.0 6.1 0.00 0.16 0.01 100 1017.8
20260902131256 93 46 3.5 7.0 0.00 0.16 0.01 100 1017.8
20260902130756 93 40 1.7 4.3 0.00 0.16 0.01 100 1017.8
20260902130256 91 85 1.7 6.1 0.00 0.16 0.01 100 1017.9
20260902125756 91 42 3.5 6.1 0.00 0.16 0.01 100 1017.8
20260902125256 90 23 4.3 6.1 0.00 0.16 0.01 100 1017.9
20260902125044 88 22 1.7 5.2 0.00 0.16 0.01 100 1017.9
20260902124756 88 22 1.7 5.2 0.00 0.16 0.01 100 1017.9
20260902124506 86 19 4.3 5.2 0.00 0.16 0.01 100 1017.8
20260902124256 86 19 4.3 5.2 0.00 0.16 0.01 100 1017.8
20260902123929 81 323 2.6 6.1 0.00 0.16 0.01 100 1017.7
20260902123756 81 323 2.6 6.1 0.00 0.16 0.01 100 1017.7
20260902123600 80 28 0.9 5.2 0.00 0.16 0.01 100 1017.7
20260902123256 80 28 0.9 5.2 0.00 0.16 0.01 100 1017.7
20260902122756 80 4 2.6 2.6 0.00 0.16 0.01 100 1017.6
20260902122256 80 49 0.0 3.5 0.00 0.16 0.01 100 1017.5
20260902121756 79 12 2.6 4.3 0.00 0.16 0.01 100 1017.5
20260902121256 78 23 3.5 5.2 0.00 0.16 0.01 100 1017.5
20260902120756 78 14 1.7 4.3 0.00 0.16 0.01 100 1017.5
20260902120535 78 358 1.7 3.5 0.00 0.16 0.01 100 1017.4
20260902120257 78 358 1.7 3.5 0.00 0.16 0.01 100 1017.4
20260902115756 77 358 1.7 1.7 0.00 0.16 0.01 100 1017.4
20260902115257 77 14 0.0 1.7 0.00 0.16 0.01 100 1017.3
20260902114757 77 0 0.0 0.0 0.00 0.16 0.01 100 1017.3
20260902114257 77 0 0.0 1.7 0.00 0.16 0.01 100 1017.3
20260902114054 77 11 0.0 1.7 0.00 0.16 0.01 100 1017.4
20260902113757 77 11 0.0 1.7 0.00 0.16 0.01 100 1017.4
20260902113609 76 22 0.0 0.0 0.00 0.16 0.01 100 1017.4
20260902113257 76 22 0.0 0.0 0.00 0.16 0.01 100 1017.4
20260902113016 76 22 0.0 0.0 0.00 0.16 0.01 100 1017.4
20260902112757 76 22 0.0 0.0 0.00 0.16 0.01 100 1017.4
20260902112535 76 22 0.0 0.0 0.00 0.16 0.01 100 1017.4
20260902112257 76 22 0.0 0.0 0.00 0.16 0.01 100 1017.4
20260902111757 76 22 0.0 0.0 0.00 0.16 0.01 100 1017.3
20260902111257 76 22 0.0 0.0 0.00 0.16 0.01 100 1017.4
20260902110757 76 22 0.0 0.0 0.00 0.16 0.01 100 1017.3
20260902110257 76 22 0.0 0.0 0.01 0.16 0.01 100 1017.2
20260902105757 76 22 0.0 0.0 0.01 0.16 0.01 100 1017.3
20260902105257 76 22 0.0 0.0 0.01 0.16 0.01 100 1017.2
20260902105025 76 22 0.0 0.0 0.01 0.16 0.01 100 1017.2
20260902104757 76 22 0.0 0.0 0.01 0.16 0.01 100 1017.2
20260902104257 76 22 0.0 0.0 0.01 0.16 0.01 100 1017.0
20260902103757 76 22 0.0 0.0 0.01 0.16 0.01 100 1017.0
20260902103257 76 22 0.0 0.0 0.01 0.16 0.01 100 1016.9
20260902103212 76 22 0.0 0.0 0.01 0.16 0.01 100 1016.9
20260902102757 76 22 0.0 0.0 0.01 0.16 0.01 100 1016.9
20260902102702 76 22 0.0 0.0 0.01 0.16 0.01 100 1016.9
20260902102257 76 22 0.0 0.0 0.01 0.16 0.01 100 1016.9
20260902101757 76 22 0.0 0.0 0.01 0.16 0.01 100 1016.8
20260902101525 76 22 0.0 0.0 0.01 0.16 0.01 100 1016.8
20260902101257 76 22 0.0 0.0 0.01 0.16 0.01 100 1016.8
20260902101116 76 22 0.0 0.0 0.01 0.16 0.01 100 1016.9
20260902100757 76 22 0.0 0.0 0.01 0.16 0.01 100 1016.9
20260902100450 76 22 0.0 0.0 0.00 0.15 0.00 100 1016.9
20260902100257 76 22 0.0 0.0 0.00 0.15 0.00 100 1016.9
20260902100009 76 22 0.0 0.0 0.00 0.15 0.00 100 1016.8
20260902095757 76 22 0.0 0.0 0.00 0.15 0.00 100 1016.8
20260902095528 76 22 0.0 0.0 0.00 0.15 0.00 100 1016.8
20260902095257 76 22 0.0 0.0 0.00 0.15 0.00 100 1016.8
20260902094757 76 22 0.0 0.0 0.00 0.15 0.00 100 1016.7
20260902094257 76 22 0.0 0.0 0.00 0.15 0.00 100 1016.6
20260902093757 76 22 0.0 0.0 0.00 0.15 0.00 100 1016.6
20260902093257 76 22 0.0 0.0 0.00 0.15 0.00 100 1016.5
20260902092757 77 22 0.0 0.0 0.00 0.15 0.00 100 1016.5
20260902092257 77 22 0.0 0.0 0.00 0.15 0.00 100 1016.5
20260902091757 77 22 0.0 0.0 0.00 0.15 0.00 100 1016.6
20260902091257 76 22 0.0 0.0 0.00 0.15 0.00 100 1016.6
20260902091115 77 22 0.0 0.0 0.00 0.15 0.00 100 1016.5
20260902090757 77 22 0.0 0.0 0.00 0.15 0.00 100 1016.5
20260902090412 77 22 0.0 0.0 0.00 0.15 0.00 100 1016.4
20260902090257 77 22 0.0 0.0 0.00 0.15 0.00 100 1016.4
20260902085757 77 22 0.0 0.0 0.00 0.15 0.00 100 1016.4
20260902085257 77 22 0.0 0.0 0.00 0.15 0.00 100 1016.3
20260902085037 77 22 0.0 0.0 0.00 0.15 0.00 100 1016.3
20260902084934 77 22 0.0 0.0 0.00 0.15 0.00 100 1016.3
20260902084757 77 22 0.0 0.0 0.00 0.15 0.00 100 1016.3
20260902084350 77 22 0.0 0.0 0.00 0.15 0.00 100 1016.3
20260902084257 77 22 0.0 0.0 0.00 0.15 0.00 100 1016.3
20260902083757 77 22 0.0 0.0 0.00 0.15 0.00 100 1016.3
20260902083451 77 22 0.0 0.0 0.00 0.15 0.00 100 1016.3
20260902083341 77 22 0.0 0.0 0.00 0.15 0.00 100 1016.3
20260902083257 77 22 0.0 0.0 0.00 0.15 0.00 100 1016.3
20260902082757 77 22 0.0 0.0 0.00 0.15 0.00 100 1016.3
20260902082257 77 22 0.0 0.0 0.00 0.15 0.00 100 1016.4
20260902082058 77 22 0.0 0.0 0.00 0.15 0.00 100 1016.4
20260902081757 77 22 0.0 0.0 0.00 0.15 0.00 100 1016.4
20260902081535 77 22 0.0 0.0 0.00 0.15 0.00 100 1016.4
20260902081257 77 22 0.0 0.0 0.00 0.15 0.00 100 1016.4
20260902080757 77 22 0.0 0.0 0.00 0.15 0.00 100 1016.3
20260902080511 77 22 0.0 2.6 0.00 0.15 0.00 100 1016.2
20260902080257 77 22 0.0 2.6 0.00 0.15 0.00 100 1016.2
20260902075758 77 5 0.0 0.0 0.00 0.15 0.00 100 1016.3
20260902075258 77 5 0.0 0.0 0.00 0.15 0.00 100 1016.3
20260902075040 77 5 0.0 0.0 0.00 0.15 0.00 100 1016.3
20260902074930 77 5 0.0 0.0 0.00 0.15 0.00 100 1016.3
20260902074758 77 5 0.0 0.0 0.00 0.15 0.00 100 1016.3
20260902074258 77 5 0.0 1.7 0.00 0.15 0.00 100 1016.3
20260902073758 77 16 0.0 0.0 0.00 0.15 0.00 100 1016.3
20260902073258 77 16 0.0 0.0 0.00 0.15 0.00 100 1016.3
20260902073017 77 16 0.0 0.0 0.00 0.15 0.00 100 1016.4
20260902072758 77 16 0.0 0.0 0.00 0.15 0.00 100 1016.4
20260902072258 77 16 0.0 0.0 0.00 0.15 0.00 100 1016.4
20260902072119 77 16 0.0 1.7 0.00 0.15 0.00 100 1016.4
20260902072041 77 16 0.0 1.7 0.00 0.15 0.00 100 1016.4
20260902071758 77 16 0.0 1.7 0.00 0.15 0.00 100 1016.4
20260902071258 77 1 0.0 0.0 0.00 0.15 0.00 100 1016.4
20260902070859 77 1 0.0 0.0 0.00 0.15 0.00 100 1016.4
20260902070758 77 1 0.0 0.0 0.00 0.15 0.00 100 1016.4
20260902070258 77 1 0.0 0.0 0.00 0.15 0.00 100 1016.4
20260902070103 78 1 0.0 0.0 0.00 0.15 0.00 100 1016.4
20260902065914 78 1 0.0 0.0 0.00 0.15 0.00 100 1016.4
20260902065758 78 1 0.0 0.0 0.00 0.15 0.00 100 1016.4
20260902065258 78 1 0.0 0.9 0.00 0.15 0.00 100 1016.5
20260902064758 77 15 0.0 2.6 0.00 0.15 0.00 100 1016.4
20260902064258 77 35 0.0 4.3 0.00 0.15 0.00 100 1016.4
20260902064124 78 8 1.7 3.5 0.00 0.15 0.00 100 1016.5
20260902063758 78 8 1.7 3.5 0.00 0.15 0.00 100 1016.5
20260902063258 78 21 0.0 0.0 0.00 0.15 0.00 100 1016.6
20260902062758 78 21 0.0 1.7 0.00 0.15 0.00 100 1016.6
20260902062623 78 16 0.0 0.0 0.00 0.15 0.00 100 1016.7
20260902062258 78 16 0.0 0.0 0.00 0.15 0.00 100 1016.7
20260902062122 78 16 0.0 0.0 0.00 0.15 0.00 100 1016.8
20260902061758 78 16 0.0 0.0 0.00 0.15 0.00 100 1016.8
20260902061620 77 16 0.0 0.0 0.00 0.15 0.00 100 1016.9
20260902061538 77 16 0.0 0.0 0.00 0.15 0.00 100 1016.9
20260902061258 77 16 0.0 0.0 0.00 0.15 0.00 100 1016.9
20260902061120 77 16 0.0 0.0 0.00 0.15 0.00 100 1016.9
20260902060758 77 16 0.0 0.0 0.00 0.15 0.00 100 1016.9
20260902060258 78 16 0.0 0.0 0.00 0.15 0.00 100 1016.9
20260902055758 78 16 0.0 0.0 0.00 0.15 0.00 100 1016.9
20260902055258 78 16 0.0 0.0 0.00 0.15 0.00 100 1017.0
20260902055101 78 16 0.0 0.0 0.00 0.15 0.00 100 1017.0
20260902054758 78 16 0.0 0.0 0.00 0.15 0.00 100 1017.0
20260902054445 78 16 0.0 0.0 0.00 0.15 0.00 100 1017.0
20260902054258 78 16 0.0 0.0 0.00 0.15 0.00 100 1017.1
20260902053758 78 16 0.0 0.0 0.00 0.15 0.00 100 1017.0
20260902053541 78 16 0.0 0.0 0.00 0.15 0.00 100 1017.0
20260902053258 78 16 0.0 0.0 0.00 0.15 0.00 100 1017.0
20260902053129 78 16 0.0 0.0 0.00 0.15 0.00 100 1017.1
20260902052758 78 16 0.0 0.0 0.00 0.15 0.00 100 1017.1
20260902052541 78 16 0.0 0.0 0.00 0.15 0.00 100 1017.1
20260902052258 78 16 0.0 0.0 0.00 0.15 0.00 100 1017.1
20260902051758 78 16 0.0 0.0 0.00 0.15 0.00 100 1017.1
20260902051258 78 16 0.0 0.0 0.00 0.15 0.00 100 1017.1
20260902051024 78 16 0.0 0.0 0.00 0.15 0.00 100 1017.2
20260902050758 78 16 0.0 0.0 0.00 0.15 0.00 100 1017.2
20260902050258 78 16 0.0 0.9 0.00 0.15 0.00 100 1017.3
20260902045758 78 355 0.0 0.0 0.00 0.15 0.00 100 1017.3
20260902045613 78 355 0.0 0.0 0.00 0.15 0.15 100 1017.4
20260902045258 78 355 0.0 0.0 0.00 0.15 0.15 100 1017.4
20260902045025 78 355 0.0 0.0 0.00 0.15 0.15 100 1017.5
20260902044758 78 355 0.0 0.0 0.00 0.15 0.15 100 1017.5
20260902044258 78 355 0.0 0.0 0.00 0.15 0.15 100 1017.4
20260902043758 78 355 0.0 0.9 0.00 0.15 0.15 100 1017.4
20260902043455 78 351 0.9 0.9 0.00 0.15 0.15 100 1017.4
20260902043258 78 351 0.9 0.9 0.00 0.15 0.15 100 1017.4
20260902043125 78 264 0.0 0.0 0.00 0.15 0.15 100 1017.4
20260902042758 78 264 0.0 0.0 0.00 0.15 0.15 100 1017.4
20260902042258 79 264 0.0 0.0 0.00 0.15 0.15 100 1017.5
20260902041940 79 264 0.0 0.0 0.00 0.15 0.15 100 1017.5
20260902041758 78 264 0.0 0.0 0.00 0.15 0.15 100 1017.4
20260902041519 79 264 0.0 0.0 0.00 0.15 0.15 100 1017.4
20260902041258 79 264 0.0 0.0 0.00 0.15 0.15 100 1017.4
20260902041038 79 264 0.0 0.0 0.00 0.15 0.15 100 1017.5
20260902040758 79 264 0.0 0.0 0.00 0.15 0.15 100 1017.5
20260902040259 79 264 0.0 0.0 0.00 0.15 0.15 100 1017.5
20260902040032 79 264 0.0 0.0 0.00 0.15 0.15 100 1017.6
20260902035759 79 264 0.0 0.0 0.00 0.15 0.15 100 1017.6
20260902035259 79 264 0.0 0.0 0.00 0.15 0.15 100 1017.6
20260902035037 79 264 0.0 0.0 0.00 0.15 0.15 100 1017.7
20260902034759 79 264 0.0 0.0 0.00 0.15 0.15 100 1017.7
20260902034259 79 264 0.0 0.0 0.00 0.15 0.15 100 1017.7
20260902033923 79 264 0.0 0.0 0.00 0.15 0.15 100 1017.8
20260902033759 79 264 0.0 0.0 0.00 0.15 0.15 100 1017.8
20260902033413 79 264 0.0 0.0 0.00 0.15 0.15 100 1017.9
20260902033259 79 264 0.0 0.0 0.00 0.15 0.15 100 1017.9
20260902032759 79 264 0.0 0.0 0.00 0.15 0.15 100 1017.9
20260902032259 79 264 0.0 0.0 0.00 0.15 0.15 100 1018.0
20260902032014 79 264 0.0 0.0 0.00 0.15 0.15 100 1018.1
20260902031759 79 264 0.0 0.0 0.00 0.15 0.15 100 1018.1
20260902031259 79 264 0.0 0.0 0.00 0.15 0.15 100 1018.2
20260902031129 79 264 0.0 0.0 0.00 0.15 0.15 100 1018.2
20260902030759 79 264 0.0 0.0 0.00 0.15 0.15 100 1018.2
20260902030259 79 264 0.0 0.0 0.00 0.15 0.15 100 1018.2
20260902030042 79 264 0.0 0.0 0.00 0.15 0.15 100 1018.2
20260902025759 79 264 0.0 0.0 0.00 0.15 0.15 100 1018.2
20260902025527 79 264 0.0 0.0 0.00 0.15 0.15 100 1018.2
20260902025259 79 264 0.0 0.0 0.00 0.15 0.15 100 1018.2
20260902025126 79 264 0.0 0.0 0.00 0.15 0.15 100 1018.2
20260902024759 79 264 0.0 0.0 0.00 0.15 0.15 100 1018.2
20260902024259 79 264 0.0 0.0 0.01 0.15 0.15 100 1018.2
20260902023759 79 264 0.0 0.0 0.01 0.15 0.15 100 1018.2
20260902023259 79 264 0.0 0.0 0.01 0.15 0.15 100 1018.2
20260902023131 79 264 0.0 0.0 0.01 0.15 0.15 100 1018.1
20260902022759 79 264 0.0 0.0 0.01 0.15 0.15 100 1018.1
20260902022259 79 264 0.0 0.0 0.01 0.15 0.15 100 1018.1
20260902022126 79 264 0.0 0.0 0.01 0.15 0.15 100 1018.2
20260902021759 79 264 0.0 0.0 0.01 0.15 0.15 100 1018.2
20260902021259 79 264 0.0 0.0 0.01 0.15 0.15 100 1018.1
20260902021136 79 264 0.0 0.0 0.01 0.15 0.15 100 1018.1
20260902020759 79 264 0.0 0.0 0.01 0.15 0.15 100 1018.1
20260902020259 79 264 0.0 0.0 0.01 0.15 0.15 100 1018.0
20260902015759 79 264 0.0 0.0 0.01 0.15 0.15 100 1018.0
20260902015306 79 264 0.0 0.0 0.01 0.15 0.15 100 1017.9
20260902015259 79 264 0.0 0.0 0.01 0.15 0.15 100 1017.9
20260902014759 79 264 0.0 0.0 0.01 0.15 0.15 100 1017.9
20260902014259 79 264 0.0 0.0 0.00 0.14 0.14 100 1017.8
20260902014117 79 264 0.0 0.0 0.00 0.14 0.14 100 1017.8
20260902013759 79 264 0.0 0.0 0.00 0.14 0.14 100 1017.8
20260902013259 79 264 0.0 0.0 0.00 0.14 0.14 100 1017.8
20260902013126 79 264 0.0 0.0 0.00 0.14 0.14 100 1017.7
20260902012759 79 264 0.0 0.0 0.00 0.14 0.14 100 1017.7
20260902012259 79 264 0.0 0.0 0.00 0.14 0.14 100 1017.7
20260902011759 79 264 0.0 0.0 0.00 0.14 0.14 100 1017.7
20260902011259 79 264 0.0 0.0 0.00 0.14 0.14 100 1017.7
20260902011102 79 264 0.0 0.0 0.00 0.14 0.14 100 1017.8
20260902010759 79 264 0.0 0.0 0.00 0.14 0.14 100 1017.8
20260902010259 79 264 0.0 0.0 0.00 0.14 0.14 100 1017.8
20260902010129 79 264 0.0 0.0 0.00 0.14 0.14 100 1017.8
20260902005759 79 264 0.0 0.0 0.00 0.14 0.14 100 1017.8
20260902005259 79 264 0.0 0.0 0.00 0.14 0.14 100 1017.5
20260902005201 80 264 0.0 0.0 0.00 0.14 0.14 100 1017.6
20260902004759 80 264 0.0 0.0 0.00 0.14 0.14 100 1017.6
20260902004259 80 264 0.0 0.0 0.00 0.14 0.14 100 1017.6
20260902004127 80 264 0.0 0.0 0.00 0.14 0.14 100 1017.6
20260902003759 80 264 0.0 0.0 0.00 0.14 0.14 100 1017.6
20260902003259 80 264 0.0 0.0 0.00 0.14 0.14 100 1017.6
20260902003042 80 264 0.0 0.0 0.00 0.14 0.14 100 1017.8
20260902002759 80 264 0.0 0.0 0.00 0.14 0.14 100 1017.8
20260902002259 80 264 0.0 0.0 0.00 0.14 0.14 100 1017.9
20260902002057 80 264 0.0 0.0 0.00 0.14 0.14 100 1017.9
20260902001759 80 264 0.0 0.0 0.00 0.14 0.14 100 1017.9
20260902001259 80 264 0.0 0.0 0.00 0.14 0.14 100 1017.8
20260902000759 80 264 0.0 0.0 0.00 0.14 0.14 100 1017.8
20260902000259 80 264 0.0 0.0 0.00 0.14 0.14 100 1017.8
20260901235800 80 264 0.0 0.0 0.00 0.18 0.14 100 1017.7
20260901235300 80 264 0.0 0.0 0.00 0.18 0.14 100 1017.7
20260901234800 80 264 0.0 2.6 0.00 0.18 0.14 100 1017.7
20260901234300 80 241 0.0 2.6 0.00 0.18 0.14 100 1017.6
20260901234046 80 196 0.0 1.7 0.00 0.18 0.14 100 1017.4
20260901233800 80 196 0.0 1.7 0.00 0.18 0.14 100 1017.4
20260901233300 80 187 0.0 1.7 0.00 0.18 0.14 100 1017.3
20260901233002 80 225 0.0 2.6 0.00 0.18 0.14 100 1017.4
20260901232800 80 225 0.0 2.6 0.00 0.18 0.14 100 1017.4
20260901232300 80 257 1.7 1.7 0.00 0.18 0.14 100 1017.5
20260901232046 80 133 0.0 0.0 0.00 0.18 0.14 100 1017.5
20260901231800 80 133 0.0 0.0 0.00 0.18 0.14 100 1017.5
20260901231300 80 133 0.0 0.0 0.00 0.18 0.14 100 1017.3
20260901230800 80 133 0.0 3.5 0.00 0.18 0.14 100 1017.1
20260901230300 80 158 0.9 3.5 0.00 0.18 0.14 100 1017.0
20260901225953 80 130 0.9 4.3 0.00 0.18 0.14 100 1017.0
20260901225800 80 130 0.9 4.3 0.00 0.18 0.14 100 1017.0
20260901225300 80 102 2.6 4.3 0.00 0.18 0.14 100 1016.9
20260901225127 80 133 3.5 5.2 0.00 0.18 0.14 100 1016.8
20260901224800 80 133 3.5 5.2 0.00 0.18 0.14 100 1016.8
20260901224300 80 149 4.3 5.2 0.00 0.18 0.14 100 1016.8
20260901224112 80 80 1.7 4.3 0.00 0.18 0.14 100 1016.9
20260901223800 80 80 1.7 4.3 0.00 0.18 0.14 100 1016.9
20260901223300 80 90 2.6 6.1 0.00 0.18 0.14 100 1016.8
20260901223131 80 135 1.7 6.1 0.00 0.18 0.14 100 1016.7
20260901222800 80 135 1.7 6.1 0.00 0.18 0.14 100 1016.7
20260901222300 80 98 2.6 5.2 0.00 0.18 0.14 100 1016.9
20260901222130 80 98 4.3 8.7 0.00 0.18 0.14 100 1017.0
20260901221800 80 98 4.3 8.7 0.00 0.18 0.14 100 1017.0
20260901221300 80 94 3.5 7.8 0.00 0.18 0.14 100 1017.1
20260901221130 81 99 3.5 11.3 0.00 0.18 0.14 100 1017.1
20260901220800 81 99 3.5 11.3 0.00 0.18 0.14 100 1017.1
20260901220300 82 106 2.6 7.8 0.00 0.46 0.14 100 1017.1
20260901215800 82 154 1.7 4.3 0.00 0.46 0.14 100 1017.0
20260901215300 82 178 1.7 2.6 0.00 0.46 0.14 100 1016.9
20260901214800 82 140 0.9 1.7 0.00 0.46 0.14 100 1016.8
20260901214300 82 151 0.9 1.7 0.00 0.46 0.14 100 1017.0
20260901214013 82 144 0.9 3.5 0.00 0.46 0.14 100 1017.1
20260901213800 82 144 0.9 3.5 0.00 0.46 0.14 100 1017.1
20260901213300 82 123 2.6 3.5 0.00 0.46 0.14 100 1017.2
20260901212800 82 139 1.7 2.6 0.00 0.46 0.14 100 1017.3
20260901212300 82 77 1.7 4.3 0.00 0.46 0.14 100 1017.1
20260901211800 82 106 2.6 5.2 0.00 0.46 0.14 100 1016.9
20260901211300 83 112 0.9 3.5 0.00 0.46 0.14 100 1016.7
20260901210800 82 135 2.6 5.2 0.00 0.46 0.14 100 1016.7
20260901210300 83 80 1.7 4.3 0.00 0.46 0.14 100 1016.4
20260901205800 83 97 2.6 7.0 0.00 1.24 0.14 100 1016.3
20260901205300 83 102 6.1 7.8 0.00 1.24 0.14 100 1016.2
20260901204800 84 82 0.0 0.0 0.00 1.24 0.14 100 1016.4
20260901204300 84 82 0.0 0.0 0.01 1.24 0.14 100 1016.4
20260901203800 84 82 0.0 3.5 0.03 1.24 0.14 100 1016.5
20260901203622 84 98 1.7 3.5 0.05 1.24 0.14 100 1016.4
20260901203300 84 98 1.7 3.5 0.05 1.24 0.14 100 1016.4
20260901202800 83 50 0.0 5.2 0.08 1.24 0.14 100 1016.4
20260901202300 83 70 0.0 0.0 0.10 1.24 0.14 100 1016.3
20260901201800 83 70 0.0 0.0 0.12 1.24 0.14 100 1016.3
20260901201300 84 70 0.0 0.0 0.14 1.24 0.14 100 1016.5
20260901200800 84 70 0.0 0.0 0.14 1.24 0.14 100 1016.5
20260901200301 83 70 0.0 2.6 0.14 1.24 0.14 100 1016.5
20260901195801 83 120 1.7 3.5 0.14 1.24 0.14 100 1016.7
20260901195301 83 98 2.6 6.1 0.14 1.24 0.14 100 1016.8
20260901194801 82 90 3.5 6.1 0.14 1.24 0.14 100 1016.8
20260901194301 82 71 5.2 9.6 0.13 1.23 0.13 100 1016.8
20260901193801 81 78 6.1 9.6 0.11 1.21 0.11 100 1016.7
20260901193301 82 45 6.1 13.9 0.09 1.19 0.09 100 1016.9